This is the latest recevied weather packets stored in our database for station/object W4DEX-2. If no packets are shown the sender has not sent any weather packets the latest 1 day(s).
| Time | Temp. | Humidity | Pressure | Rain* | Wind** | Luminosity | Snow |
|---|---|---|---|---|---|---|---|
| 1778043302 | 17.78° C | 66% | 1014.5 hPa | 0 mm | 5.36 m/s, 179° | - | - |
| 1778043002 | 17.78° C | 65% | 1014.5 hPa | 0 mm | 5.81 m/s, 174° | - | - |
| 1778042703 | 17.78° C | 65% | 1014.7 hPa | 0 mm | 5.81 m/s, 175° | - | - |
| 1778042102 | 17.78° C | 63% | 1014.5 hPa | 0 mm | 6.26 m/s, 180° | - | - |
| 1778041802 | 17.78° C | 63% | 1014.4 hPa | 0 mm | 5.81 m/s, 174° | - | - |
| 1778041502 | 17.78° C | 62% | 1014.4 hPa | 0 mm | 5.81 m/s, 177° | - | - |
| 1778041202 | 18.33° C | 62% | 1014.5 hPa | 0 mm | 5.36 m/s, 177° | - | - |
| 1778040902 | 18.33° C | 61% | 1014.4 hPa | 0 mm | 5.81 m/s, 179° | - | - |
| 1778040603 | 18.33° C | 60% | 1014.3 hPa | 0 mm | 5.81 m/s, 176° | - | - |
| 1778040302 | 18.33° C | 60% | 1014.3 hPa | 0 mm | 5.36 m/s, 178° | - | - |
| 1778039703 | 18.33° C | 59% | 1014.2 hPa | 0 mm | 5.81 m/s, 176° | - | - |
| 1778039402 | 18.33° C | 59% | 1014.2 hPa | 0 mm | 5.81 m/s, 176° | - | - |
| 1778038802 | 18.89° C | 58% | 1014.1 hPa | 0 mm | 5.81 m/s, 180° | - | - |
| 1778038502 | 18.89° C | 57% | 1014 hPa | 0 mm | 5.36 m/s, 177° | - | - |
| 1778037602 | 18.89° C | 56% | 1014.2 hPa | 0 mm | 6.26 m/s, 174° | - | - |
| 1778037302 | 18.89° C | 55% | 1014 hPa | 0 mm | 5.81 m/s, 168° | - | - |
| 1778036402 | 18.89° C | 53% | 1014.3 hPa | 0 mm | 5.81 m/s, 178° | - | - |
| 1778036102 | 18.89° C | 52% | 1014.2 hPa | 0 mm | 5.36 m/s, 175° | - | - |
| 1778035803 | 18.89° C | 51% | 1014.2 hPa | 0 mm | 5.36 m/s, 173° | - | - |
| 1778035503 | 18.89° C | 50% | 1014.3 hPa | 0 mm | 5.81 m/s, 177° | - | - |
| 1778035202 | 19.44° C | 49% | 1014.3 hPa | 0 mm | 5.81 m/s, 176° | - | - |
| 1778034302 | 19.44° C | 46% | 1014.4 hPa | 0 mm | 5.81 m/s, 176° | - | - |
| 1778034002 | 19.44° C | 46% | 1014.3 hPa | 0 mm | 5.36 m/s, 177° | - | - |
| 1778033702 | 19.44° C | 46% | 1014.3 hPa | 0 mm | 5.36 m/s, 176° | - | - |
| 1778033405 | 20° C | 46% | 1014.3 hPa | 0 mm | 5.36 m/s, 179° | - | - |
* Rain latest hour (hover to see other rain measurements)
** Current wind speed in m/s (hover to see current wind gust speed)